カタログに戻る

STARLINK-32302

運用中通信VLEO
NORAD 61621·PAYLOAD·🇺🇸 United States

打ち上げ Oct 23, 2024 から Cape Canaveral Space Force Station

Loading…

次のパス (今後24時間)

TLE

最新Source: CelesTrak SupGP

元期: Sep 15, 2026, 03:35 UTC

1 61621C 24191A   26258.14979167  .00024199  00000+0  87682-3 0  2586
2 61621  43.0018 164.2793 0001422 278.7431 125.4466 15.27554366    10

AllMySatでSTARLINK-32302をリアルタイム追跡

Download on the App Store